Time,TemperatureF,DewpointF,PressureIn,WindDirection,WindDirectionDegrees,WindSpeedMPH,WindSpeedGustMPH,Humidity,HourlyPrecipIn,Conditions,Clouds,dailyrainin,SoftwareType,DateUTC
2013-02-12 00:00:00,32.4,27.5,29.84,West,270,7.0,7.0,82,0.00,,,0.00,Wunderground v.1.15,2013-02-12 05:00:00,
2013-02-12 00:03:00,32.4,27.5,29.84,WSW,248,7.0,17.0,82,0.00,,,0.00,Wunderground v.1.15,2013-02-12 05:03:00,
2013-02-12 00:04:00,32.4,27.5,29.84,West,275,8.0,17.0,82,0.00,,,0.00,Wunderground v.1.15,2013-02-12 05:04:00,
2013-02-12 00:09:00,32.4,27.5,29.84,WSW,254,9.0,17.0,82,0.00,,,0.00,Wunderground v.1.15,2013-02-12 05:09:00,
2013-02-12 00:12:00,32.4,27.5,29.84,SW,232,10.0,11.0,82,0.00,,,0.00,Wunderground v.1.15,2013-02-12 05:12:00,
2013-02-12 00:17:00,32.4,27.5,29.84,West,281,9.0,14.0,82,0.00,,,0.00,Wunderground v.1.15,2013-02-12 05:17:00,
2013-02-12 00:22:00,32.4,27.5,29.85,WNW,286,9.0,9.0,82,0.00,,,0.00,Wunderground v.1.15,2013-02-12 05:22:00,
2013-02-12 00:27:00,32.3,27.4,29.85,SW,220,9.0,11.0,82,0.00,,,0.00,Wunderground v.1.15,2013-02-12 05:27:00,
2013-02-12 00:33:00,32.3,27.1,29.85,West,277,9.0,12.0,81,0.00,,,0.00,Wunderground v.1.15,2013-02-12 05:33:00,
2013-02-12 00:38:00,32.4,26.9,29.85,WSW,255,9.0,12.0,80,0.00,,,0.00,Wunderground v.1.15,2013-02-12 05:38:00,
2013-02-12 00:44:00,32.4,26.9,29.86,West,275,8.0,11.0,80,0.00,,,0.00,Wunderground v.1.15,2013-02-12 05:44:00,
2013-02-12 00:50:00,32.4,26.9,29.86,NW,307,9.0,9.0,80,0.00,,,0.00,Wunderground v.1.15,2013-02-12 05:50:00,
2013-02-12 00:55:00,32.4,26.9,29.87,West,274,10.0,15.0,80,0.00,,,0.00,Wunderground v.1.15,2013-02-12 05:55:00,
2013-02-12 01:00:00,32.3,26.5,29.87,WNW,287,11.0,11.0,79,0.00,,,0.00,Wunderground v.1.15,2013-02-12 06:00:00,
2013-02-12 01:06:00,32.3,26.5,29.87,West,261,11.0,13.0,79,0.00,,,0.00,Wunderground v.1.15,2013-02-12 06:06:00,
2013-02-12 01:12:00,32.3,26.8,29.87,West,272,9.0,11.0,80,0.00,,,0.00,Wunderground v.1.15,2013-02-12 06:12:00,
2013-02-12 01:17:00,32.1,26.9,29.87,NW,310,9.0,14.0,81,0.00,,,0.00,Wunderground v.1.15,2013-02-12 06:17:00,
2013-02-12 01:22:00,32.0,26.5,29.87,West,274,10.0,16.0,80,0.00,,,0.00,Wunderground v.1.15,2013-02-12 06:22:00,
2013-02-12 01:28:00,32.0,25.9,29.88,WSW,250,10.0,18.0,78,0.00,,,0.00,Wunderground v.1.15,2013-02-12 06:28:00,
2013-02-12 01:33:00,32.0,25.0,29.87,NW,318,12.0,25.0,75,0.00,,,0.00,Wunderground v.1.15,2013-02-12 06:33:00,
2013-02-12 01:38:00,32.0,25.0,29.87,WSW,238,13.0,25.0,75,0.00,,,0.00,Wunderground v.1.15,2013-02-12 06:38:00,
2013-02-12 01:43:00,31.9,24.6,29.88,WNW,301,10.0,13.0,74,0.00,,,0.00,Wunderground v.1.15,2013-02-12 06:43:00,
2013-02-12 01:48:00,31.8,24.5,29.88,NW,305,10.0,17.0,74,0.00,,,0.00,Wunderground v.1.15,2013-02-12 06:48:00,
2013-02-12 01:54:00,31.7,24.7,29.88,NW,306,9.0,13.0,75,0.00,,,0.00,Wunderground v.1.15,2013-02-12 06:54:00,
2013-02-12 01:59:00,31.7,24.7,29.88,NNE,24,9.0,13.0,75,0.00,,,0.00,Wunderground v.1.15,2013-02-12 06:59:00,
2013-02-12 02:05:00,31.6,24.6,29.89,West,276,9.0,14.0,75,0.00,,,0.00,Wunderground v.1.15,2013-02-12 07:05:00,
2013-02-12 02:10:00,31.6,24.6,29.89,West,277,10.0,10.0,75,0.00,,,0.00,Wunderground v.1.15,2013-02-12 07:10:00,
2013-02-12 02:15:00,31.5,24.8,29.89,ENE,57,10.0,11.0,76,0.00,,,0.00,Wunderground v.1.15,2013-02-12 07:15:00,
2013-02-12 02:21:00,31.5,24.8,29.89,SW,219,8.0,8.0,76,0.00,,,0.00,Wunderground v.1.15,2013-02-12 07:21:00,
2013-02-12 02:26:00,31.5,25.1,29.90,West,262,7.0,11.0,77,0.00,,,0.00,Wunderground v.1.15,2013-02-12 07:26:00,
2013-02-12 02:31:00,31.5,25.1,29.90,WNW,298,8.0,10.0,77,0.00,,,0.00,Wunderground v.1.15,2013-02-12 07:31:00,
2013-02-12 02:37:00,31.4,24.7,29.90,West,273,10.0,15.0,76,0.00,,,0.00,Wunderground v.1.15,2013-02-12 07:37:00,
2013-02-12 02:42:00,31.4,25.0,29.90,West,271,10.0,13.0,77,0.00,,,0.00,Wunderground v.1.15,2013-02-12 07:42:00,
2013-02-12 02:47:00,31.4,24.7,29.91,WNW,294,11.0,22.0,76,0.00,,,0.00,Wunderground v.1.15,2013-02-12 07:47:00,
2013-02-12 02:52:00,31.5,24.5,29.91,SSW,213,12.0,12.0,75,0.00,,,0.00,Wunderground v.1.15,2013-02-12 07:52:00,
2013-02-12 02:58:00,31.5,24.5,29.91,WNW,285,12.0,16.0,75,0.00,,,0.00,Wunderground v.1.15,2013-02-12 07:58:00,
2013-02-12 03:03:00,31.5,24.5,29.92,WNW,292,11.0,19.0,75,0.00,,,0.00,Wunderground v.1.15,2013-02-12 08:03:00,
2013-02-12 03:08:00,31.5,24.5,29.91,WNW,296,11.0,19.0,75,0.00,,,0.00,Wunderground v.1.15,2013-02-12 08:08:00,
2013-02-12 03:14:00,31.5,24.5,29.92,WNW,292,10.0,15.0,75,0.00,,,0.00,Wunderground v.1.15,2013-02-12 08:14:00,
2013-02-12 03:20:00,31.4,24.4,29.92,West,274,11.0,15.0,75,0.00,,,0.00,Wunderground v.1.15,2013-02-12 08:20:00,
2013-02-12 03:25:00,31.4,24.4,29.92,NW,306,12.0,15.0,75,0.00,,,0.00,Wunderground v.1.15,2013-02-12 08:25:00,
2013-02-12 03:30:00,31.4,24.7,29.92,NW,325,10.0,10.0,76,0.00,,,0.00,Wunderground v.1.15,2013-02-12 08:30:00,
2013-02-12 03:36:00,31.3,24.6,29.92,NNW,331,9.0,15.0,76,0.00,,,0.00,Wunderground v.1.15,2013-02-12 08:36:00,
2013-02-12 03:41:00,31.3,24.6,29.92,WNW,285,10.0,11.0,76,0.00,,,0.00,Wunderground v.1.15,2013-02-12 08:41:00,
2013-02-12 03:47:00,31.2,24.5,29.92,WNW,282,10.0,15.0,76,0.00,,,0.00,Wunderground v.1.15,2013-02-12 08:47:00,
2013-02-12 03:52:00,31.2,24.5,29.92,NW,311,10.0,13.0,76,0.00,,,0.00,Wunderground v.1.15,2013-02-12 08:52:00,
2013-02-12 03:57:00,31.1,24.4,29.92,West,269,10.0,15.0,76,0.00,,,0.00,Wunderground v.1.15,2013-02-12 08:57:00,
2013-02-12 04:02:00,31.1,24.4,29.92,WSW,258,11.0,11.0,76,0.00,,,0.00,Wunderground v.1.15,2013-02-12 09:02:00,
2013-02-12 04:07:00,31.1,24.7,29.93,West,272,10.0,12.0,77,0.00,,,0.00,Wunderground v.1.15,2013-02-12 09:07:00,
2013-02-12 04:13:00,31.0,24.6,29.93,West,267,9.0,16.0,77,0.00,,,0.00,Wunderground v.1.15,2013-02-12 09:13:00,
2013-02-12 04:18:00,31.0,24.6,29.93,SSE,166,10.0,16.0,77,0.00,,,0.00,Wunderground v.1.15,2013-02-12 09:18:00,
2013-02-12 04:23:00,31.0,24.6,29.93,WNW,302,10.0,20.0,77,0.00,,,0.00,Wunderground v.1.15,2013-02-12 09:23:00,
2013-02-12 04:28:00,31.0,24.6,29.94,West,261,11.0,20.0,77,0.00,,,0.00,Wunderground v.1.15,2013-02-12 09:28:00,
2013-02-12 04:34:00,31.0,24.6,29.94,WNW,284,10.0,11.0,77,0.00,,,0.00,Wunderground v.1.15,2013-02-12 09:34:00,
2013-02-12 04:39:00,31.0,24.6,29.94,West,268,9.0,16.0,77,0.00,,,0.00,Wunderground v.1.15,2013-02-12 09:39:00,
2013-02-12 04:44:00,31.0,24.6,29.94,West,267,11.0,19.0,77,0.00,,,0.00,Wunderground v.1.15,2013-02-12 09:44:00,
2013-02-12 04:49:00,31.0,24.6,29.94,NW,318,12.0,19.0,77,0.00,,,0.00,Wunderground v.1.15,2013-02-12 09:49:00,
2013-02-12 04:55:00,30.9,24.5,29.94,WNW,283,12.0,17.0,77,0.00,,,0.00,Wunderground v.1.15,2013-02-12 09:55:00,
2013-02-12 05:00:00,30.9,24.5,29.95,WNW,288,12.0,12.0,77,0.00,,,0.00,Wunderground v.1.15,2013-02-12 10:00:00,
2013-02-12 05:06:00,30.9,24.5,29.95,WNW,284,11.0,17.0,77,0.00,,,0.00,Wunderground v.1.15,2013-02-12 10:06:00,
2013-02-12 05:11:00,30.9,24.5,29.95,WNW,286,10.0,13.0,77,0.00,,,0.00,Wunderground v.1.15,2013-02-12 10:11:00,
2013-02-12 05:16:00,30.8,24.7,29.95,WNW,296,8.0,13.0,78,0.00,,,0.00,Wunderground v.1.15,2013-02-12 10:16:00,
2013-02-12 05:22:00,30.8,24.7,29.95,WNW,300,9.0,12.0,78,0.00,,,0.00,Wunderground v.1.15,2013-02-12 10:22:00,
2013-02-12 05:27:00,30.9,24.8,29.95,SW,236,10.0,16.0,78,0.00,,,0.00,Wunderground v.1.15,2013-02-12 10:27:00,
2013-02-12 05:32:00,30.9,24.8,29.95,WSW,250,9.0,14.0,78,0.00,,,0.00,Wunderground v.1.15,2013-02-12 10:32:00,
2013-02-12 05:37:00,30.9,25.2,29.96,WNW,283,8.0,14.0,79,0.00,,,0.00,Wunderground v.1.15,2013-02-12 10:37:00,
2013-02-12 05:43:00,30.9,25.2,29.96,West,269,9.0,9.0,79,0.00,,,0.00,Wunderground v.1.15,2013-02-12 10:43:00,
2013-02-12 05:48:00,30.9,25.2,29.96,West,275,8.0,9.0,79,0.00,,,0.00,Wunderground v.1.15,2013-02-12 10:48:00,
2013-02-12 05:54:00,30.9,25.2,29.96,West,274,6.0,8.0,79,0.00,,,0.00,Wunderground v.1.15,2013-02-12 10:54:00,
2013-02-12 05:59:00,30.9,25.2,29.97,West,274,8.0,19.0,79,0.00,,,0.00,Wunderground v.1.15,2013-02-12 10:59:00,
2013-02-12 06:04:00,30.9,25.2,29.97,North,351,9.0,9.0,79,0.00,,,0.00,Wunderground v.1.15,2013-02-12 11:04:00,
2013-02-12 06:09:00,30.9,25.2,29.97,West,281,7.0,13.0,79,0.00,,,0.00,Wunderground v.1.15,2013-02-12 11:09:00,
2013-02-12 06:15:00,30.9,24.8,29.97,WNW,284,9.0,16.0,78,0.00,,,0.00,Wunderground v.1.15,2013-02-12 11:15:00,
2013-02-12 06:20:00,30.9,24.5,29.97,West,273,11.0,11.0,77,0.00,,,0.00,Wunderground v.1.15,2013-02-12 11:20:00,
2013-02-12 06:25:00,30.9,24.5,29.97,WSW,239,12.0,17.0,77,0.00,,,0.00,Wunderground v.1.15,2013-02-12 11:25:00,
2013-02-12 06:31:00,30.9,24.5,29.98,ESE,109,10.0,19.0,77,0.00,,,0.00,Wunderground v.1.15,2013-02-12 11:31:00,
2013-02-12 06:37:00,30.9,24.5,29.98,West,281,10.0,19.0,77,0.00,,,0.00,Wunderground v.1.15,2013-02-12 11:37:00,
2013-02-12 06:43:00,30.9,24.5,29.98,WNW,294,9.0,11.0,77,0.00,,,0.00,Wunderground v.1.15,2013-02-12 11:43:00,
2013-02-12 06:48:00,30.9,24.5,29.98,ESE,121,7.0,11.0,77,0.00,,,0.00,Wunderground v.1.15,2013-02-12 11:48:00,
2013-02-12 06:53:00,30.9,24.5,29.98,WNW,288,9.0,14.0,77,0.00,,,0.00,Wunderground v.1.15,2013-02-12 11:53:00,
2013-02-12 06:59:00,30.9,24.2,29.99,WNW,285,11.0,17.0,76,0.00,,,0.00,Wunderground v.1.15,2013-02-12 11:59:00,
2013-02-12 07:04:00,30.9,24.5,29.99,WSW,242,10.0,11.0,77,0.00,,,0.00,Wunderground v.1.15,2013-02-12 12:04:00,
2013-02-12 07:10:00,30.9,24.5,29.99,West,281,8.0,15.0,77,0.00,,,0.00,Wunderground v.1.15,2013-02-12 12:10:00,
2013-02-12 07:15:00,30.9,24.5,29.99,NW,323,11.0,17.0,77,0.00,,,0.00,Wunderground v.1.15,2013-02-12 12:15:00,
2013-02-12 07:21:00,30.8,24.4,29.99,SW,214,12.0,12.0,77,0.00,,,0.00,Wunderground v.1.15,2013-02-12 12:21:00,
2013-02-12 07:26:00,30.8,24.4,29.99,WNW,296,11.0,12.0,77,0.00,,,0.00,Wunderground v.1.15,2013-02-12 12:26:00,
2013-02-12 07:31:00,30.9,24.8,30.00,West,277,9.0,9.0,78,0.00,,,0.00,Wunderground v.1.15,2013-02-12 12:31:00,
2013-02-12 07:37:00,30.9,24.8,30.00,West,259,8.0,14.0,78,0.00,,,0.00,Wunderground v.1.15,2013-02-12 12:37:00,
2013-02-12 07:42:00,30.9,24.8,30.00,West,280,8.0,11.0,78,0.00,,,0.00,Wunderground v.1.15,2013-02-12 12:42:00,
2013-02-12 07:47:00,30.9,24.8,30.00,WNW,290,8.0,16.0,78,0.00,,,0.00,Wunderground v.1.15,2013-02-12 12:47:00,
2013-02-12 07:52:00,30.9,24.8,30.00,West,277,9.0,11.0,78,0.00,,,0.00,Wunderground v.1.15,2013-02-12 12:52:00,
2013-02-12 07:58:00,30.8,24.7,30.00,NW,325,11.0,15.0,78,0.00,,,0.00,Wunderground v.1.15,2013-02-12 12:58:00,
2013-02-12 08:03:00,30.8,24.7,30.01,WNW,302,11.0,12.0,78,0.00,,,0.00,Wunderground v.1.15,2013-02-12 13:03:00,
2013-02-12 08:09:00,30.8,25.1,30.01,West,275,9.0,12.0,79,0.00,,,0.00,Wunderground v.1.15,2013-02-12 13:09:00,
2013-02-12 08:14:00,30.8,25.1,30.01,SW,236,8.0,12.0,79,0.00,,,0.00,Wunderground v.1.15,2013-02-12 13:14:00,
2013-02-12 08:19:00,30.8,24.7,30.01,West,269,10.0,15.0,78,0.00,,,0.00,Wunderground v.1.15,2013-02-12 13:19:00,
2013-02-12 08:24:00,30.8,24.7,30.01,West,274,10.0,11.0,78,0.00,,,0.00,Wunderground v.1.15,2013-02-12 13:24:00,
2013-02-12 08:30:00,30.8,24.7,30.01,West,275,9.0,16.0,78,0.00,,,0.00,Wunderground v.1.15,2013-02-12 13:30:00,
2013-02-12 08:35:00,30.8,24.4,30.01,WNW,292,10.0,16.0,77,0.00,,,0.00,Wunderground v.1.15,2013-02-12 13:35:00,
2013-02-12 08:40:00,30.8,24.4,30.01,WNW,285,12.0,12.0,77,0.00,,,0.00,Wunderground v.1.15,2013-02-12 13:40:00,
2013-02-12 08:45:00,30.9,24.5,30.01,WSW,242,11.0,15.0,77,0.00,,,0.00,Wunderground v.1.15,2013-02-12 13:45:00,
2013-02-12 08:51:00,30.9,24.5,30.02,WNW,286,11.0,11.0,77,0.00,,,0.00,Wunderground v.1.15,2013-02-12 13:51:00,
2013-02-12 08:56:00,30.9,24.5,30.02,WNW,290,10.0,17.0,77,0.00,,,0.00,Wunderground v.1.15,2013-02-12 13:56:00,
2013-02-12 09:02:00,30.9,24.5,30.01,WSW,244,10.0,10.0,77,0.00,,,0.00,Wunderground v.1.15,2013-02-12 14:02:00,
2013-02-12 09:07:00,30.9,24.8,30.02,WNW,294,9.0,10.0,78,0.00,,,0.00,Wunderground v.1.15,2013-02-12 14:07:00,
2013-02-12 09:13:00,31.0,24.9,30.02,West,279,9.0,10.0,78,0.00,,,0.00,Wunderground v.1.15,2013-02-12 14:13:00,
2013-02-12 09:18:00,30.9,24.8,30.02,WNW,291,9.0,12.0,78,0.00,,,0.00,Wunderground v.1.15,2013-02-12 14:18:00,
2013-02-12 09:23:00,30.9,24.8,30.02,SW,231,9.0,9.0,78,0.00,,,0.00,Wunderground v.1.15,2013-02-12 14:23:00,
2013-02-12 09:29:00,31.0,24.9,30.02,NW,309,7.0,11.0,78,0.00,,,0.00,Wunderground v.1.15,2013-02-12 14:29:00,
2013-02-12 09:34:00,31.0,24.9,30.03,West,267,8.0,16.0,78,0.00,,,0.00,Wunderground v.1.15,2013-02-12 14:34:00,
2013-02-12 09:39:00,31.0,24.9,30.02,West,281,9.0,16.0,78,0.00,,,0.00,Wunderground v.1.15,2013-02-12 14:39:00,
2013-02-12 09:44:00,30.9,24.8,30.02,WNW,292,9.0,15.0,78,0.00,,,0.00,Wunderground v.1.15,2013-02-12 14:44:00,
2013-02-12 09:49:00,30.9,24.8,30.02,West,281,10.0,15.0,78,0.00,,,0.00,Wunderground v.1.15,2013-02-12 14:49:00,
2013-02-12 09:55:00,31.0,24.6,30.02,West,275,8.0,13.0,77,0.00,,,0.00,Wunderground v.1.15,2013-02-12 14:55:00,
2013-02-12 10:00:00,31.0,24.6,30.02,West,259,9.0,9.0,77,0.00,,,0.00,Wunderground v.1.15,2013-02-12 15:00:00,
2013-02-12 10:06:00,31.0,24.6,30.03,WNW,285,10.0,10.0,77,0.00,,,0.00,Wunderground v.1.15,2013-02-12 15:06:00,
2013-02-12 10:11:00,31.0,24.6,30.03,West,275,9.0,9.0,77,0.00,,,0.00,Wunderground v.1.15,2013-02-12 15:11:00,
2013-02-12 10:16:00,31.0,24.6,30.02,WNW,294,8.0,9.0,77,0.00,,,0.00,Wunderground v.1.15,2013-02-12 15:16:00,
2013-02-12 10:21:00,31.1,25.0,30.03,WNW,285,6.0,11.0,78,0.00,,,0.00,Wunderground v.1.15,2013-02-12 15:21:00,
2013-02-12 10:27:00,31.2,24.8,30.03,West,277,6.0,11.0,77,0.00,,,0.00,Wunderground v.1.15,2013-02-12 15:27:00,
2013-02-12 10:32:00,31.1,24.7,30.03,WNW,290,7.0,8.0,77,0.00,,,0.00,Wunderground v.1.15,2013-02-12 15:32:00,
2013-02-12 10:37:00,31.1,24.7,30.03,West,269,8.0,10.0,77,0.00,,,0.00,Wunderground v.1.15,2013-02-12 15:37:00,
2013-02-12 10:42:00,31.1,25.0,30.03,West,263,7.0,7.0,78,0.00,,,0.00,Wunderground v.1.15,2013-02-12 15:42:00,
2013-02-12 10:48:00,31.2,25.1,30.04,WSW,240,7.0,10.0,78,0.00,,,0.00,Wunderground v.1.15,2013-02-12 15:48:00,
2013-02-12 10:53:00,31.3,25.2,30.03,West,263,6.0,7.0,78,0.00,,,0.00,Wunderground v.1.15,2013-02-12 15:53:00,
2013-02-12 10:58:00,31.4,25.3,30.03,WNW,290,5.0,7.0,78,0.00,,,0.00,Wunderground v.1.15,2013-02-12 15:58:00,
2013-02-12 11:03:00,31.3,25.2,30.02,West,260,6.0,6.0,78,0.00,,,0.00,Wunderground v.1.15,2013-02-12 16:03:00,
2013-02-12 11:09:00,31.4,25.3,30.02,West,276,5.0,8.0,78,0.00,,,0.00,Wunderground v.1.15,2013-02-12 16:09:00,
2013-02-12 11:14:00,31.4,25.3,30.02,WNW,290,5.0,10.0,78,0.00,,,0.00,Wunderground v.1.15,2013-02-12 16:14:00,
2013-02-12 11:19:00,31.3,25.2,30.02,West,276,6.0,10.0,78,0.00,,,0.00,Wunderground v.1.15,2013-02-12 16:19:00,
2013-02-12 11:25:00,31.3,25.2,30.01,West,281,6.0,8.0,78,0.00,,,0.00,Wunderground v.1.15,2013-02-12 16:25:00,
2013-02-12 11:31:00,31.2,25.1,30.01,West,277,6.0,6.0,78,0.00,,,0.00,Wunderground v.1.15,2013-02-12 16:31:00,
2013-02-12 11:37:00,31.5,25.4,30.01,WSW,240,3.0,6.0,78,0.00,,,0.00,Wunderground v.1.15,2013-02-12 16:37:00,
2013-02-12 11:42:00,31.5,25.4,30.02,SW,225,3.0,9.0,78,0.00,,,0.00,Wunderground v.1.15,2013-02-12 16:42:00,
2013-02-12 11:47:00,31.4,25.6,30.02,WSW,241,5.0,11.0,79,0.00,,,0.00,Wunderground v.1.15,2013-02-12 16:47:00,
2013-02-12 11:53:00,31.4,25.9,30.02,SW,228,6.0,8.0,80,0.00,,,0.00,Wunderground v.1.15,2013-02-12 16:53:00,
2013-02-12 11:58:00,31.3,25.8,30.01,SW,226,6.0,12.0,80,0.00,,,0.00,Wunderground v.1.15,2013-02-12 16:58:00,
2013-02-12 12:03:00,31.4,25.9,30.02,WSW,250,6.0,11.0,80,0.00,,,0.00,Wunderground v.1.15,2013-02-12 17:03:00,
2013-02-12 12:09:00,31.4,25.6,30.03,West,275,7.0,11.0,79,0.00,,,0.00,Wunderground v.1.15,2013-02-12 17:09:00,
2013-02-12 12:14:00,31.5,25.4,30.03,WSW,255,8.0,12.0,78,0.00,,,0.00,Wunderground v.1.15,2013-02-12 17:14:00,
2013-02-12 12:19:00,31.6,25.2,30.02,WSW,251,8.0,12.0,77,0.00,,,0.00,Wunderground v.1.15,2013-02-12 17:19:00,
2013-02-12 12:24:00,31.7,25.3,30.02,WSW,243,7.0,11.0,77,0.00,,,0.00,Wunderground v.1.15,2013-02-12 17:24:00,
2013-02-12 12:30:00,31.6,24.9,30.02,SW,226,7.0,13.0,76,0.00,,,0.00,Wunderground v.1.15,2013-02-12 17:30:00,
2013-02-12 12:35:00,31.6,24.9,30.02,West,265,8.0,15.0,76,0.00,,,0.00,Wunderground v.1.15,2013-02-12 17:35:00,
2013-02-12 12:41:00,31.9,25.2,30.02,SW,224,8.0,8.0,76,0.00,,,0.00,Wunderground v.1.15,2013-02-12 17:41:00,
2013-02-12 12:46:00,31.9,24.9,30.01,SW,230,7.0,9.0,75,0.00,,,0.00,Wunderground v.1.15,2013-02-12 17:46:00,
2013-02-12 12:51:00,31.9,24.9,30.01,West,279,7.0,8.0,75,0.00,,,0.00,Wunderground v.1.15,2013-02-12 17:51:00,
2013-02-12 12:57:00,31.9,25.2,30.01,SW,235,6.0,11.0,76,0.00,,,0.00,Wunderground v.1.15,2013-02-12 17:57:00,
2013-02-12 13:02:00,31.9,24.9,30.00,WNW,296,6.0,7.0,75,0.00,,,0.00,Wunderground v.1.15,2013-02-12 18:02:00,
2013-02-12 13:07:00,32.1,25.1,30.00,West,261,6.0,7.0,75,0.00,,,0.00,Wunderground v.1.15,2013-02-12 18:07:00,
2013-02-12 13:13:00,32.1,25.1,30.00,NW,323,5.0,10.0,75,0.00,,,0.00,Wunderground v.1.15,2013-02-12 18:13:00,
2013-02-12 13:18:00,32.0,25.3,30.00,WSW,242,6.0,10.0,76,0.00,,,0.00,Wunderground v.1.15,2013-02-12 18:18:00,
2013-02-12 13:23:00,32.0,25.3,30.00,WSW,248,7.0,10.0,76,0.00,,,0.00,Wunderground v.1.15,2013-02-12 18:23:00,
2013-02-12 13:29:00,31.8,25.1,29.99,SW,224,8.0,12.0,76,0.00,,,0.00,Wunderground v.1.15,2013-02-12 18:29:00,
2013-02-12 13:34:00,31.9,25.2,29.98,West,273,9.0,12.0,76,0.00,,,0.00,Wunderground v.1.15,2013-02-12 18:34:00,
2013-02-12 13:39:00,32.1,25.1,29.98,WSW,248,8.0,12.0,75,0.00,,,0.00,Wunderground v.1.15,2013-02-12 18:39:00,
2013-02-12 13:45:00,32.3,24.9,29.97,WNW,294,8.0,12.0,74,0.00,,,0.00,Wunderground v.1.15,2013-02-12 18:45:00,
2013-02-12 13:50:00,32.3,24.6,29.96,West,272,8.0,8.0,73,0.00,,,0.00,Wunderground v.1.15,2013-02-12 18:50:00,
2013-02-12 13:55:00,32.4,24.7,29.96,West,267,7.0,9.0,73,0.00,,,0.00,Wunderground v.1.15,2013-02-12 18:55:00,
2013-02-12 14:01:00,32.6,25.2,29.95,West,274,5.0,7.0,74,0.00,,,0.00,Wunderground v.1.15,2013-02-12 19:01:00,
2013-02-12 14:06:00,32.5,24.8,29.94,West,260,6.0,7.0,73,0.00,,,0.00,Wunderground v.1.15,2013-02-12 19:06:00,
2013-02-12 14:12:00,32.4,25.0,29.93,West,268,6.0,6.0,74,0.00,,,0.00,Wunderground v.1.15,2013-02-12 19:12:00,
2013-02-12 14:17:00,32.6,24.9,29.94,West,262,6.0,7.0,73,0.00,,,0.00,Wunderground v.1.15,2013-02-12 19:17:00,
2013-02-12 14:22:00,32.7,25.0,29.94,WNW,298,6.0,10.0,73,0.00,,,0.00,Wunderground v.1.15,2013-02-12 19:22:00,
2013-02-12 14:27:00,32.5,24.8,29.94,WNW,286,7.0,12.0,73,0.00,,,0.00,Wunderground v.1.15,2013-02-12 19:27:00,
2013-02-12 14:33:00,32.7,25.0,29.94,West,267,7.0,12.0,73,0.00,,,0.00,Wunderground v.1.15,2013-02-12 19:33:00,
2013-02-12 14:38:00,32.8,25.1,29.94,South,182,5.0,12.0,73,0.00,,,0.00,Wunderground v.1.15,2013-02-12 19:38:00,
2013-02-12 14:43:00,32.8,25.1,29.93,WNW,286,6.0,9.0,73,0.00,,,0.00,Wunderground v.1.15,2013-02-12 19:43:00,
2013-02-12 14:49:00,32.9,25.2,29.94,West,277,7.0,9.0,73,0.00,,,0.00,Wunderground v.1.15,2013-02-12 19:49:00,
2013-02-12 14:55:00,32.8,24.8,29.94,SW,233,5.0,7.0,72,0.00,,,0.00,Wunderground v.1.15,2013-02-12 19:55:00,
2013-02-12 15:00:00,32.7,25.0,29.94,SW,221,6.0,6.0,73,0.00,,,0.00,Wunderground v.1.15,2013-02-12 20:00:00,
2013-02-12 15:06:00,32.8,25.1,29.94,WSW,258,6.0,11.0,73,0.00,,,0.00,Wunderground v.1.15,2013-02-12 20:06:00,
2013-02-12 15:11:00,32.8,25.1,29.95,West,261,7.0,8.0,73,0.00,,,0.00,Wunderground v.1.15,2013-02-12 20:11:00,
2013-02-12 15:17:00,33.0,25.3,29.95,West,265,6.0,8.0,73,0.00,,,0.00,Wunderground v.1.15,2013-02-12 20:17:00,
2013-02-12 15:22:00,32.8,25.1,29.95,SSW,203,5.0,8.0,73,0.00,,,0.00,Wunderground v.1.15,2013-02-12 20:22:00,
2013-02-12 15:27:00,32.8,25.4,29.95,WSW,246,5.0,11.0,74,0.00,,,0.00,Wunderground v.1.15,2013-02-12 20:27:00,